Charleston, SC

12:49 AM EST on February 12, 2016 (GMT -0500)
Charleston Air Force Base-International

Weather History for KCHS - April, 2013

Change the Weather History Date:

Monday, April 22, 2013

  Actual Average Record
Temperature  
Mean Temperature 61 °F 66 °F  
Max Temperature 72 °F 78 °F 91 °F (1988)
Min Temperature 50 °F 55 °F 37 °F (1950)
Degree Days  
Heating Degree Days 4 2  
Month to date heating degree days 67 76  
Since 1 July heating degree days 1832 1951  
Cooling Degree Days 0 3  
Month to date cooling degree days 63 52  
Year to date cooling degree days 94 86  
Growing Degree Days 11 (Base 50)    
Moisture  
Dew Point 43 °F    
Average Humidity 58    
Maximum Humidity 72    
Minimum Humidity 44    
Precipitation  
Precipitation 0.00 in 0.10 in 1.42 in (1984)
Month to date precipitation 4.43 2.15  
Year to date precipitation 19.32 12.53  
Snow  
Snow 0.00 in 0.00 in - ()
Month to date snowfall 0.0  
Since 1 July snowfall T 0.5  
Snow Depth 0.00 in    
Sea Level Pressure  
Sea Level Pressure 30.22 in    
Wind  
Wind Speed 12 mph (NNE)    
Max Wind Speed 23 mph    
Max Gust Speed 28 mph    
Visibility 10 miles    
Events      
T = Trace of Precipitation, MM = Missing Value Source: NWS Daily Summary

Daily Weather History Graph

Daily Weather History Graph

Search for Another Location

Airport or City:

Trip Planner

Search our weather history database for the weather conditions in past years. The results will help you decide how hot, cold, wet, or windy it might be!

Date:

Astronomy

Apr. 22, 2013 Rise Set
Actual Time 6:42 AM EDT 7:55 PM EDT
Civil Twilight 6:16 AM EDT 8:21 PM EDT
Nautical Twilight 5:45 AM EDT 8:52 PM EDT
Astronomical Twilight 5:13 AM EDT 9:24 PM EDT
Moon 4:52 PM EDT (4/22) 4:24 AM EDT (4/22)
Length of Visible Light 14h 05m
Length of Day
13h 13m
Waxing Gibbous, 87% of the Moon is Illuminated
Apr 22
Waxing Gibbous
Apr 25
Full
May 2
Last Quarter
May 9
New
May 18
First Quarter

Hourly Weather History & Observations

Time (EDT) Temp. Dew Point Humidity Pressure Visibility Wind Dir Wind Speed Gust Speed Precip Events Conditions
12:56 AM 55.9 °F 43.0 °F 62% 30.28 in 10.0 mi NE 12.7 mph - N/A   Scattered Clouds
1:56 AM 55.0 °F 42.1 °F 62% 30.27 in 10.0 mi NE 15.0 mph - N/A   Partly Cloudy
2:56 AM 54.0 °F 39.0 °F 57% 30.26 in 10.0 mi NE 15.0 mph 23.0 mph N/A   Scattered Clouds
3:56 AM 52.0 °F 36.0 °F 54% 30.25 in 10.0 mi NE 16.1 mph - N/A   Mostly Cloudy
4:56 AM 52.0 °F 34.0 °F 50% 30.24 in 10.0 mi NNE 12.7 mph - N/A   Scattered Clouds
5:56 AM 51.1 °F 34.0 °F 52% 30.26 in 10.0 mi NE 12.7 mph - N/A   Mostly Cloudy
6:56 AM 50.0 °F 36.0 °F 59% 30.27 in 10.0 mi NNE 12.7 mph - N/A   Mostly Cloudy
7:56 AM 50.0 °F 39.0 °F 66% 30.28 in 10.0 mi North 10.4 mph 18.4 mph N/A   Mostly Cloudy
8:56 AM 51.1 °F 41.0 °F 68% 30.26 in 10.0 mi NNE 11.5 mph - N/A   Mostly Cloudy
9:56 AM 54.0 °F 43.0 °F 66% 30.25 in 10.0 mi NNE 16.1 mph 23.0 mph N/A   Mostly Cloudy
10:56 AM 55.9 °F 43.0 °F 62% 30.26 in 10.0 mi NNE 13.8 mph - N/A   Mostly Cloudy
11:56 AM 62.1 °F 45.0 °F 53% 30.26 in 10.0 mi North 12.7 mph - N/A   Mostly Cloudy
12:56 PM 64.0 °F 45.0 °F 50% 30.25 in 10.0 mi NNE 13.8 mph 21.9 mph N/A   Scattered Clouds
1:56 PM 68.0 °F 46.9 °F 47% 30.20 in 10.0 mi North 16.1 mph 21.9 mph N/A   Scattered Clouds
2:56 PM 70.0 °F 46.9 °F 44% 30.19 in 10.0 mi North 16.1 mph 21.9 mph N/A   Scattered Clouds
3:56 PM 71.1 °F 48.0 °F 44% 30.17 in 10.0 mi North 15.0 mph 20.7 mph N/A   Partly Cloudy
4:56 PM 71.1 °F 48.0 °F 44% 30.15 in 10.0 mi North 11.5 mph - N/A   Partly Cloudy
5:56 PM 70.0 °F 46.9 °F 44% 30.14 in 10.0 mi NNE 16.1 mph 19.6 mph N/A   Clear
6:56 PM 66.9 °F 46.9 °F 49% 30.14 in 10.0 mi North 13.8 mph - N/A   Clear
7:56 PM 64.0 °F 46.9 °F 54% 30.16 in 10.0 mi NNE 8.1 mph - N/A   Clear
8:56 PM 61.0 °F 46.9 °F 60% 30.17 in 10.0 mi NNE 9.2 mph - N/A   Clear
9:56 PM 60.1 °F 46.9 °F 62% 30.19 in 10.0 mi NNE 9.2 mph - N/A   Clear
10:56 PM 57.0 °F 46.0 °F 67% 30.20 in 10.0 mi NNE 8.1 mph - N/A   Clear
11:56 PM 55.0 °F 46.0 °F 72% 30.19 in 10.0 mi NNE 5.8 mph - N/A   Clear